Погода Александров Гай

Погода Александров Гай : погода сейчас, прогноз погоды и архив. Всё, что Вы хотите узнать о погоде Александров Гай!

Хотите узнать прогноз погоды Александров Гай? Тогда Вам сюда: Погода Александров Гай

Поиск расширенной информации на нашем сайте:

Другие новости

Новости СМИ2

Главная страница сайта

Новости сайта

03.07.2017

Напоминаем, что на нашем специализированном сайте Метеоцентр.Азия вы можете получить высокодетализированные автоматические прогнозы погоды по пунктам России, СНГ и мира в авиационном формате (включающие направление и скорость ветра, видимость, явления погоды, количество и форму облачности, нижнюю и верхнюю границу облачности).


Погода Александров Гай - сегодня

Время (UTC), дата Ветер
(°,м/с) 
Видим.   Явления Облачность Т
(°С)
Тd
(°С)
f(%) Тe
(°С)
Pmin
(гПа)
dP
(гПа)
Po
(мм)
O2
(г/м3)
Тmin Tmax R s Состояние
почвы
12 17.01.18 160 (Ю) 10 км  {снег}  3/0 верхняя 
[Ci fib]
-12.3 -14.6 83 -16  1026.8  -0.6  768  325           
15 17.01.18 120 (ЮВ) 10 км    3/0 верхняя 
[Ci fib]
-17.4 -18.6 90 -20  1026.4  -0.5  767  332    -11.5  0.0     
18 17.01.18 130 (ЮВ) 10 км    4/0 средняя 
[Ac As]
-16.8 -17.9 91 -19  1025.9  -0.5  767  331           
21 17.01.18 120 (ЮВ) 10 км  {снег}  10/10 500 м 
[Sc]
-14.9 -16 91 -17  1026.1  0.2  767  328           
00 18.01.18 120 (ЮВ) 10 км    ясно 
-15.9 -17.3 89 -18  1026  0.1  767  330           
03 18.01.18 110 (В) 10 км    ясно 
-20.4 -22.1 86 -23  1025.6  -0.4  767  336  -20.4    0.0  равномерный
сухой снег
100% 
06 18.01.18 100 (В) 10 км    1/0 средняя 
[Ac lent]
-21 -23 84 -28  1025.7  0.2  767  336  -21.3         
09 18.01.18 100 (В) 10 км    3/0 средняя, верхняя 
[Ac trans|Ci sp]
-17.6 -21 75 -22  1025.6  0.1  767  332           
12 18.01.18 090 (В) 10 км    3/0 средняя, верхняя 
[Ac trans|Ci sp]
-16.3 -19.7 75 -21  1024.1  -1.5  766  330           
15 18.01.18 080 (В) 10 км    ясно 
-19 -20.8 86 -24  1023.6  -0.5  765  333    -15.7       
18 18.01.18 080 (В) 10 км    ясно 
-20.6 -22.5 85 -26  1024.3  0.7  766  335           
21 18.01.18 070 (В) 10 км    ясно 
-21.9 -23.9 84 -28  1024.4  766  337           
00 19.01.18 070 (В) 10 км    ясно 
-23 -25.1 83 -29  1023.2  -1.2  765  338           
03 19.01.18 060 (СВ) 10 км    10/0 средняя 
[As op]
-23 -25.1 83 -28  1023  -0.2  765  338  -23.4      равномерный
сухой снег
100% 
06 19.01.18 070 (В) 10 км    3/0 верхняя 
[Ci fib]
-21.4 -23.5 83 -27  1024.2  1.2  766  336           
09 19.01.18 050 (СВ) 10 км  в посл. час снег  10/0 средняя 
[As op]
-17.9 -20 84 -24  1023.7  -0.5  765  332           
12 19.01.18 070 (В) 10 км  {снег}  10/0 средняя 
[As op]
-14.8 -16.6 86 -20  1023.8  -0.1  765  327           
15 19.01.18 080 (В) 5{10}  4000 м  слаб. снег  10/10 570 м 
[Frnb]
-12.4 -13.6 91 -18  1024.3  0.5  766  324    -12.4  0.0     
18 19.01.18 080 (В) 4{11}  10 км  {снег}  10/10 570 м 
[Sc]
-11.5 -12.9 89 -16  1024.4  0.2  766  323           
21 19.01.18 080 (В) 10 км  {снег}  10/10 600 м 
[Sc]
-10.2 -11.5 90 -14  1024.2  0.1  766  322           
00 20.01.18 090 (В) 4000 м  слаб. снег  10/10 570 м 
[Sc]
-9.8 -10.7 93 -14  1024.3  0.1  766  321           
03 20.01.18 090 (В) 4000 м  слаб. снег  10/10 600 м 
[Frnb]
-10.2 -11.4 91 -14  1024  -0.3  766  322  -12.4    0.0  равномерный
сухой снег
100% 
06 20.01.18 100 (В) 10 км  {снег}  10/10 720 м 
[Sc]
-9.6 -10.7 92 -14  1024  766  321           
09 20.01.18 140 (ЮВ) 10 км    10/10 750 м 
[Sc]
-8 -9.6 88 -10  1024.6  0.7  766  319           
12 20.01.18 130 (ЮВ) 4000 м  слаб. снег  10/10 570 м 
[Frnb]
-7.1 -8.3 91 -10  1023.8  -0.8  765  318           
Время (UTC), дата Ветер
(°,м/с) 
Видим.   Явления Облачность Т
(°С)
Тd
(°С)
f(%) Тe
(°С)
Pmin
(гПа)
dP
(гПа)
Po
(мм)
O2
(г/м3)
Тmin Tmax R s Состояние
почвы

Для получения пояснительной информации подведите курсор к названию столбца.

ПОГОДА Александров Гай - архив

Всё, что Вы хотите узнать о погоде Александров Гай - удобно и подробно!

Выберите нужную дату (начиная с 1 января 2015* года) и нажмите кнопку "Найти".
Будут отображены архивные сводки погоды по пункту Александров Гай, начиная с указанной даты.


Отображать данные в формате CSV (для использования в таблицах Excel)


Внимание! Наш архив погоды предназначен исключительно для личного некоммерческого использования в познавательных целях. Если Вам необходимы официальные справки о состоянии погоды (для производственных, юридических, коммерческих и т.п. целей), обращайтесь в органы Росгидромета.

*Примечание: данная дата относится к архиву по метеостанциям СССР (Россия, СНГ, Балтия).
Архив по метеостанциям Зарубежной Европы и Азии (кроме Китая) хранится 10 дней, по другим регионам земного шара (Китай, Африка, Америка, Австралия, Океания) - 1 день.

Александров Гай - район местоположения метеостанции


Название, широта, долгота, высота метеостанции:
Александров Гай 50.2°ш. 48.6°д. 25 м над ур. моря [Российская Федерация]

Дополнительная информация

В oтличие oт бoльшинства пoгoдных сайтoв мы публикуем пoдрoбную метеoинфoрмацию в детальнoм прoфессиoнальнoм фoрмате.

Характеристики температуры и влажнoсти вoздуха измеряются на высoте 2 м в тени вдали oт зданий и деревьев.
Скoрoсть ветра измеряется на высoте 10 м (на урoвне рoста челoвека скoрoсть ветра ниже в 1.5-2 раза). Если метеoстанция нахoдится в гoрoде или в лесу, тo скoрoсть ветра занижена на 2-4 м/с пo сравнению с oткрытым местoм. Скoрoсть ветра над акватoриями крупных рек и oзёр, а также на вершинах хoлмoв на 2-5 м/с выше, чем в oбычных услoвиях.
Атмoсфернoе давление в разных тoчках местнoсти мoжет значительнo oтличаться oт давления на метеoстанции, в зависимoсти oт услoвий рельефа (при пoдъёме на 10 м давление пoнижается примернo на 1 мм рт.ст.).